Find Starlink 5584

NORAD ID: 55769 Int'l Des: 2023-028 Owner: SPXS Country: US Constellation: starlink operational
LEOCIRCULAR

Live Position

Loading 3D Globe...

About Starlink 5584

Description loading...

Upcoming Passes

Passes for default location (London). Set your location on the main map for personalized predictions.

Altitude History

Loading altitude history...

Two-Line Element Set

1 55769U 23028AE 26105.48746366 -.00000143 00000-0 -41626-5 0 9999
2 55769 69.9992 131.7346 0003416 269.1969 90.8798 14.98330710172040
Epoch: Apr 15, 2026 • Age: 23 hours

Current Status

Altitude 576.6 km
Velocity 7.57 km/s
Sub-Earth Point 30.47°N, 69.38°W
Launch Date Mar 3, 2023
Age 3.1 years
Type internet

Technical Details

Classification Payload
Mass 305.00 kg
Dry Mass 290.00 kg
Total Mass 305.00 kg
Length 0.20 m
Diameter 2.80 m
Span 9.00 m
Shape Box + pan
Manufacturer SPXS
Bus Type Starlink
Phase Status In Orbit
Owner/State SPXS/US

Most Searched